Hourly Data Report for September 13, 2017

All times are specified in Local Standard Time (LST). Add 1 hour to adjust for Daylight Saving Time where and when it is observed.

NORTH CAPE
PRINCE EDWARD ISLAND

47°03'29.000" N
63°59'55.000" W
7.60 m
8300516
71987
WNE

Download Data

Hourly Data (September 2017)
Hourly Data Report for September 13, 2017
Temp Definition
°C
Dew Point Temp Definition
°C
Rel Hum Definition
%
Wind Dir Definition
10's deg

Wind Spd Definition
km/h
Visibility Definition
km
Stn Press Definition
kPa
Hmdx Definition


Wind Chill Definition


Weather Definition


TIME
00:00 14.3 11.1 81 23 5   100.40     LegendNANA
01:00 13.9 11.0 83 22 3   100.40     LegendNANA
02:00 14.0 11.6 85 26 7   100.38     LegendNANA
03:00 14.3 12.1 87 29 5   100.36     LegendNANA
04:00 12.7 11.6 93 26 1   100.37     LegendNANA
05:00 10.9 9.9 93 21 6   100.35     LegendNANA
06:00 14.1 13.0 93 27 10   100.38     LegendNANA
07:00 15.0 13.2 89 26 18   100.43     LegendNANA
08:00 15.6 13.6 88 26 20   100.44     LegendNANA
09:00 15.7 13.2 85 25 23   100.45     LegendNANA
10:00 16.1 13.1 83 24 24   100.44     LegendNANA
11:00 16.7 13.6 82 24 23   100.42     LegendNANA
12:00 17.3 14.3 82 23 19   100.38     LegendNANA
13:00 18.0 14.6 81 23 22   100.34     LegendNANA
14:00 19.1 14.6 75 23 19   100.32     LegendNANA
15:00 19.8 14.5 72 23 21   100.29     LegendNANA
16:00 20.1 13.5 66 22 18   100.29     LegendNANA
17:00 21.5 12.5 56 22 21   100.27     LegendNANA
18:00 19.2 13.7 71 23 21   100.28     LegendNANA
19:00 20.9 11.7 56 22 21   100.30     LegendNANA
20:00 18.9 13.2 70 22 19   100.34     LegendNANA
21:00 18.8 13.7 73 23 26   100.32     LegendNANA
22:00 19.3 13.2 68 23 32   100.30     LegendNANA
23:00 18.6 13.4 72 23 37   100.28     LegendNANA

Notes on Data Quality.

Legend

  • E = Estimated
  • M = Missing
  • NA = Not Available
  • ‡ = Partner data that is not subject to review by the National Climate Archives
Date modified: